KRE6572 SPZO-SEQM

Flight info

Callsign KRE6572
Flight time N/A
Altitude 32000
Route GAXUN DCT PUL UP408 VURIS
Aircraft B722/M-SDFGHRWY/C

Departure

Time 2026-05-01 14:40
Airport Alejandro Velasco Astete International Airport (SPZO)

Arrival

Time N/A
Airport Mariscal Sucre International Airport (SEQM)
Time Latitude Longitude Altitude Speed Heading
2026-05-01 14:07 -13.53787 -71.94247 10803 ft 0 kts 117°
2026-05-01 14:30 -13.53793 -71.94275 10805 ft 1 kts 13°
2026-05-01 14:30 -13.53799 -71.94276 10805 ft 0 kts
2026-05-01 14:31 -13.53742 -71.94272 10804 ft 10 kts
2026-05-01 14:32 -13.53676 -71.94283 10803 ft 8 kts 301°
2026-05-01 14:32 -13.53663 -71.94321 10805 ft 4 kts 281°
2026-05-01 14:32 -13.53651 -71.94434 10812 ft 22 kts 275°
2026-05-01 14:32 -13.53637 -71.94585 10821 ft 18 kts 275°
2026-05-01 14:33 -13.53626 -71.94703 10827 ft 14 kts 275°
2026-05-01 14:33 -13.53613 -71.94848 10836 ft 28 kts 276°
2026-05-01 14:33 -13.53594 -71.95030 10848 ft 22 kts 275°
2026-05-01 14:33 -13.53582 -71.95159 10860 ft 14 kts 276°
2026-05-01 14:34 -13.53571 -71.95256 10867 ft 14 kts 276°
2026-05-01 14:34 -13.53560 -71.95362 10873 ft 12 kts 276°
2026-05-01 14:34 -13.53554 -71.95413 10876 ft 0 kts 276°
2026-05-01 14:34 -13.53550 -71.95447 10878 ft 8 kts 281°
2026-05-01 14:35 -13.53510 -71.95477 10877 ft 5 kts 358°
2026-05-01 14:35 -13.53500 -71.95475 10877 ft 0 kts 19°
2026-05-01 14:36 -13.53478 -71.95464 10875 ft 13 kts 32°
2026-05-01 14:37 -13.53419 -71.95382 10867 ft 12 kts 99°
2026-05-01 14:37 -13.53423 -71.95348 10865 ft 2 kts 96°
2026-05-01 14:37 -13.53423 -71.95346 10865 ft 0 kts 96°
2026-05-01 14:38 -13.53423 -71.95342 10865 ft 7 kts 96°
2026-05-01 14:38 -13.53449 -71.95085 10848 ft 63 kts 96°
2026-05-01 14:38 -13.53515 -71.94447 10812 ft 114 kts 95°
2026-05-01 14:38 -13.53614 -71.93482 10765 ft 157 kts 96°
2026-05-01 14:39 -13.53739 -71.92233 10731 ft 188 kts 96°
2026-05-01 14:39 -13.53881 -71.90897 10960 ft 188 kts 96°
2026-05-01 14:39 -13.54063 -71.89553 11118 ft 193 kts 99°
2026-05-01 14:39 -13.54381 -71.88191 11299 ft 195 kts 104°
2026-05-01 14:40 -13.54880 -71.86844 11281 ft 214 kts 117°
2026-05-01 14:40 -13.55596 -71.85525 11565 ft 210 kts 118°
2026-05-01 14:40 -13.56161 -71.84141 11725 ft 213 kts 105°
2026-05-01 14:40 -13.56727 -71.82721 11853 ft 219 kts 120°
2026-05-01 14:41 -13.57623 -71.81390 11860 ft 236 kts 125°
2026-05-01 14:41 -13.58705 -71.79997 11918 ft 256 kts 134°
2026-05-01 14:41 -13.59291 -71.79408 12077 ft 259 kts 136°
2026-05-01 14:41 -13.60409 -71.77996 12431 ft 266 kts 110°
2026-05-01 14:42 -13.60827 -71.76279 12562 ft 281 kts 93°
2026-05-01 14:42 -13.60856 -71.75753 12665 ft 282 kts 87°
2026-05-01 14:42 -13.60823 -71.75049 12860 ft 282 kts 81°
2026-05-01 14:43 -13.60186 -71.73174 13344 ft 281 kts 51°
2026-05-01 14:43 -13.58690 -71.71935 13654 ft 284 kts 18°
2026-05-01 14:43 -13.56718 -71.71646 13887 ft 294 kts 359°
2026-05-01 14:43 -13.55238 -71.71624 14352 ft 294 kts
2026-05-01 14:44 -13.54297 -71.71571 14638 ft 293 kts 360°
2026-05-01 14:44 -13.51280 -71.73506 15422 ft 299 kts 302°
2026-05-01 14:44 -13.50377 -71.75459 15905 ft 304 kts 295°
2026-05-01 14:45 -13.49498 -71.77471 16349 ft 307 kts 299°
2026-05-01 14:45 -13.47162 -71.80824 17619 ft 297 kts 311°
2026-05-01 14:45 -13.45904 -71.82575 17631 ft 314 kts 299°
2026-05-01 14:46 -13.44918 -71.84650 17697 ft 331 kts 296°
2026-05-01 14:46 -13.43184 -71.89133 18428 ft 344 kts 293°
2026-05-01 14:46 -13.42332 -71.91441 19004 ft 343 kts 293°
2026-05-01 14:47 -13.41490 -71.93722 19493 ft 345 kts 293°
2026-05-01 14:47 -13.40638 -71.96031 19935 ft 347 kts 293°
2026-05-01 14:47 -13.39782 -71.98350 20371 ft 349 kts 293°
2026-05-01 14:48 -13.38062 -72.03009 21226 ft 352 kts 294°
2026-05-01 14:48 -13.37189 -72.05371 21637 ft 353 kts 294°
2026-05-01 14:48 -13.35415 -72.10165 21876 ft 373 kts 294°
2026-05-01 14:49 -13.33552 -72.15206 22596 ft 378 kts 294°
2026-05-01 14:49 -13.31692 -72.20230 23374 ft 380 kts 294°
2026-05-01 14:50 -13.30126 -72.24460 23950 ft 383 kts 294°
2026-05-01 14:50 -13.27906 -72.30447 24730 ft 386 kts 294°
2026-05-01 14:51 -13.26956 -72.33011 25045 ft 387 kts 294°
2026-05-01 14:51 -13.25039 -72.38176 25653 ft 390 kts 294°
2026-05-01 14:52 -13.23106 -72.43380 26227 ft 392 kts 294°
2026-05-01 14:52 -13.22141 -72.45978 26499 ft 393 kts 294°
2026-05-01 14:52 -13.20188 -72.51232 27037 ft 395 kts 294°
2026-05-01 14:53 -13.19209 -72.53863 27304 ft 396 kts 294°
2026-05-01 14:53 -13.18228 -72.56502 27560 ft 397 kts 294°
2026-05-01 14:53 -13.17243 -72.59146 27809 ft 398 kts 294°
2026-05-01 14:53 -13.16246 -72.61826 28056 ft 399 kts 294°
2026-05-01 14:54 -13.15265 -72.64459 28291 ft 400 kts 294°
2026-05-01 14:54 -13.14273 -72.67120 28531 ft 400 kts 294°
2026-05-01 14:54 -13.13271 -72.69807 28765 ft 401 kts 294°
2026-05-01 14:54 -13.12288 -72.72443 28988 ft 402 kts 294°
2026-05-01 14:55 -13.11179 -72.75086 29167 ft 399 kts 304°
2026-05-01 14:55 -13.09456 -72.77293 29283 ft 397 kts 317°
2026-05-01 14:55 -13.07286 -72.78972 29393 ft 398 kts 329°
2026-05-01 14:55 -13.04822 -72.80290 29515 ft 401 kts 334°
2026-05-01 14:56 -13.02253 -72.81438 29633 ft 405 kts 336°
2026-05-01 14:56 -12.99646 -72.82510 29747 ft 408 kts 337°
2026-05-01 14:56 -12.97002 -72.83558 29857 ft 411 kts 338°
2026-05-01 14:56 -12.94304 -72.84609 29979 ft 414 kts 338°
2026-05-01 14:57 -12.91629 -72.85642 30175 ft 414 kts 338°
2026-05-01 14:57 -12.86243 -72.87716 30568 ft 416 kts 338°
2026-05-01 14:57 -12.83521 -72.88762 30743 ft 417 kts 338°
2026-05-01 14:58 -12.80842 -72.89791 30914 ft 418 kts 338°
2026-05-01 14:58 -12.78112 -72.90839 31086 ft 418 kts 338°
2026-05-01 14:58 -12.75412 -72.91877 31250 ft 419 kts 338°
2026-05-01 14:58 -12.72659 -72.92933 31415 ft 420 kts 338°
2026-05-01 14:59 -12.69941 -72.93976 31572 ft 421 kts 338°
2026-05-01 14:59 -12.67213 -72.95023 31725 ft 422 kts 338°
2026-05-01 14:59 -12.64478 -72.96072 31875 ft 423 kts 338°
2026-05-01 14:59 -12.61708 -72.97134 32016 ft 424 kts 338°
2026-05-01 15:00 -12.53338 -73.00344 32020 ft 437 kts 338°
2026-05-01 15:01 -12.47616 -73.02536 31997 ft 445 kts 338°
2026-05-01 15:01 -12.41798 -73.04764 31978 ft 453 kts 338°
2026-05-01 15:02 -12.35851 -73.07040 31961 ft 461 kts 339°
2026-05-01 15:02 -12.29827 -73.09344 31942 ft 467 kts 339°
2026-05-01 15:03 -12.23728 -73.11676 31903 ft 473 kts 339°
2026-05-01 15:03 -12.17564 -73.14030 31874 ft 477 kts 339°
2026-05-01 15:04 -12.11384 -73.16392 31859 ft 473 kts 339°
2026-05-01 15:04 -12.05279 -73.18722 31858 ft 467 kts 339°
2026-05-01 15:05 -11.99247 -73.21024 31858 ft 462 kts 340°
2026-05-01 15:05 -11.93260 -73.23306 31858 ft 458 kts 339°
2026-05-01 15:06 -11.87309 -73.25575 31867 ft 454 kts 339°
2026-05-01 15:06 -11.81445 -73.27809 31867 ft 451 kts 340°
2026-05-01 15:07 -11.75609 -73.30032 31866 ft 448 kts 340°
2026-05-01 15:07 -11.69818 -73.32237 31867 ft 447 kts 339°
2026-05-01 15:08 -11.63989 -73.34455 31866 ft 447 kts 339°
2026-05-01 15:08 -11.58185 -73.36662 31866 ft 446 kts 339°
2026-05-01 15:09 -11.52391 -73.38866 31865 ft 446 kts 340°
2026-05-01 15:09 -11.46624 -73.41057 31864 ft 445 kts 339°
2026-05-01 15:10 -11.40819 -73.43262 31864 ft 445 kts 339°
2026-05-01 15:10 -11.32162 -73.46549 31874 ft 444 kts 340°
2026-05-01 15:11 -11.23532 -73.49823 31890 ft 443 kts 339°
2026-05-01 15:12 -11.17817 -73.51990 31907 ft 442 kts 339°
2026-05-01 15:12 -11.09201 -73.55256 31963 ft 440 kts 340°
2026-05-01 15:14 -10.94924 -73.60661 31993 ft 440 kts 339°
2026-05-01 15:14 -10.86277 -73.63933 32002 ft 440 kts 339°
2026-05-01 15:15 -10.74819 -73.68266 32005 ft 442 kts 339°
2026-05-01 15:16 -10.63271 -73.72629 32004 ft 443 kts 339°
2026-05-01 15:18 -10.48814 -73.78086 31880 ft 448 kts 339°
2026-05-01 15:19 -10.37087 -73.82508 31724 ft 452 kts 339°
2026-05-01 15:19 -10.28188 -73.85862 31563 ft 456 kts 339°
2026-05-01 15:20 -10.22254 -73.88097 31414 ft 459 kts 339°
2026-05-01 15:20 -10.19287 -73.89214 31406 ft 458 kts 339°
2026-05-01 15:21 -10.13317 -73.91461 31404 ft 458 kts 339°
2026-05-01 15:21 -10.07374 -73.93698 31403 ft 458 kts 339°
2026-05-01 15:22 -9.98446 -73.97056 31402 ft 457 kts 339°
2026-05-01 15:22 -9.92507 -73.99288 31402 ft 457 kts 339°
2026-05-01 15:23 -9.86566 -74.01520 31410 ft 456 kts 339°
2026-05-01 15:23 -9.80632 -74.03750 31409 ft 457 kts 339°
2026-05-01 15:24 -9.74697 -74.05978 31409 ft 457 kts 339°
2026-05-01 15:24 -9.68765 -74.08205 31408 ft 457 kts 339°
2026-05-01 15:25 -9.62823 -74.10434 31408 ft 457 kts 339°
2026-05-01 15:25 -9.56902 -74.12655 31407 ft 457 kts 339°
2026-05-01 15:26 -9.50943 -74.14889 31406 ft 457 kts 339°
2026-05-01 15:26 -9.44982 -74.17123 31406 ft 457 kts 339°
2026-05-01 15:27 -9.39045 -74.19347 31405 ft 457 kts 339°
2026-05-01 15:28 -9.30159 -74.22675 31404 ft 457 kts 339°
2026-05-01 15:28 -9.24219 -74.24898 31404 ft 457 kts 339°
2026-05-01 15:29 -9.15289 -74.28239 31403 ft 457 kts 339°
2026-05-01 15:30 -9.03416 -74.32680 31401 ft 457 kts 340°
2026-05-01 15:31 -8.85603 -74.39333 31409 ft 458 kts 340°
2026-05-01 15:32 -8.73654 -74.43792 31408 ft 460 kts 340°
2026-05-01 15:34 -8.55686 -74.50493 31407 ft 462 kts 340°